Regional Weather Roundup
Issued by NWS

Home | Current Version | Previous Version | Graphics & Text | Print | Product List | Glossary On
Versions: 1 2 3 4 5 6 7 8 9 10 11 12 13 14 15 16 17 18 19 20 21 22 23 24 25 26 27 28
000
ASUS45 KBOU 231210
RWRCO

WEATHER ROUNDUP FOR COLORADO
NATIONAL WEATHER SERVICE DENVER/BOULDER CO
500 AM MST THU NOV 23 2017

NOTE: "FAIR" INDICATES FEW OR NO CLOUDS BELOW 12000 FEET WITH NO
SIGNIFICANT WEATHER AND/OR OBSTRUCTIONS TO VISIBILITY.

COZ001>005-013-030-031-231300-
...NORTHWEST COLORADO...

CITY           SKY/WX    TMP DP  RH WIND       PRES   REMARKS
CRAIG          FAIR      27  24  89 CALM      30.39F
HAYDEN         FAIR      34  32  92 SE5       30.41S WCI  30
MEEKER         FAIR      31  28  89 E5        30.41F WCI  26
RABBIT EARS PA CLOUDY   N/A N/A N/A W6        30.48S
STEAMBOAT SPGS CLOUDY    32  32 100 CALM      30.40S VSB<1/4
WALDEN         FAIR      34  30  86 SE8       30.40F WCI  27
$$

COZ006>008-011-231300-
...WEST CENTRAL VALLEYS...

CITY           SKY/WX    TMP DP  RH WIND       PRES   REMARKS
GRAND JUNCTION FAIR      39  33  79 E5        30.38S
MONTROSE       FAIR      33  29  85 S9        30.43F WCI  25
EAGLE          MOCLDY    26  25  96 CALM      30.48F
RIFLE          FAIR      31  29  92 CALM      30.42F
DELTA          FAIR      32  27  83 CALM      30.42S
NUCLA          FAIR      36  30  80 E10       30.43F
$$

COZ017>023-064>068-231300-
...SOUTHWEST COLORADO...

CITY           SKY/WX    TMP DP  RH WIND       PRES   REMARKS
DURANGO        FAIR      27  22  81 N3        30.38S
CORTEZ         FAIR      29  24  82 E5        30.38S WCI  24
PAGOSA SPRINGS FAIR      34  26  71 CALM      30.41S
TELLURIDE      FAIR      35  27  72 SE8       30.51S WCI  28
WOLF CREEK PAS FAIR      34  18  51 NW8       30.62R WCI  27
$$

COZ009-010-012-014-032>034-037-058>063-231300-
...CENTRAL COLORADO...

CITY           SKY/WX    TMP DP  RH WIND       PRES   REMARKS
ASPEN          FAIR      31  28  89 S8        30.45F WCI  23
BUENA VISTA    FAIR      38  31  76 NW8       30.42S
COPPER MTN     FAIR      32  28  86 MISG      30.56S
BERTHOUD PASS  CLOUDY    25  14  63 NW36      30.48S WCI   7
COTTONWOOD PAS FAIR      43  30  61 W14G29    30.47S
GUNNISON       FAIR      23  21  92 CALM      30.50S
KREMMLING      MOCLDY    34  32  93 CALM      30.45S FOG
LEADVILLE      MOCLDY    30  27  88 E3        30.49S
MONARCH PASS   FOG       28  28 100 SW21      30.66S VSB 1/4 WCI  15
SALIDA         FAIR      36  31  83 W3        30.49R
SUNLIGHT       FAIR      32  30  93 N6        30.58S WCI  26
WILKERSON PASS FAIR      34  21  60 N16G25    30.51F WCI  23
$$

COZ069>075-231300-
...SAN LUIS VALLEY/SANGRE DE CRISTO MOUNTAINS...

CITY           SKY/WX    TMP DP  RH WIND       PRES   REMARKS
ALAMOSA        FAIR      27  23  85 SW3       30.40F
DEL NORTE      FAIR      40  28  62 SW5       30.42R
LA VETA PASS   FAIR      34  28  80 SW16G22     N/A  WCI  23
SAGUACHE       FAIR      37  32  81 NW15      30.41S
$$

COZ035-036-038>040-231300-
...NORTHERN COLORADO FRONT RANGE...

CITY           SKY/WX    TMP DP  RH WIND       PRES   REMARKS
DENVER INTL AP FAIR      46  32  58 SW12      30.22F
DMNS CITY PARK   N/A     47  31  55 SE8G15    30.23F
AURORA         PTCLDY    43  33  66 S10       30.24F
FRONT RANGE AP FAIR      43  34  71 SW14G20   30.24S
ERIE MUNI ARPT FAIR      35  32  90 S3        30.26F
BOULDER MUN AP FAIR      52  32  46 CALM      30.20F
CENTENNIAL     FAIR      44  32  62 S7        30.25F
BROOMFIELD     FAIR      54  32  43 S5        30.23F
FORT COLLINS   FAIR      38  35  89 CALM      30.21F
LONGMONT       FAIR      38  33  83 W3        30.23S
$$

COZ041-046-047-076>085-087-088-231300-
...PIKES PEAK/PALMER DIVIDE AND SOUTHERN FOOTHILLS...

CITY           SKY/WX    TMP DP  RH WIND       PRES   REMARKS
COLO. SPRINGS  MOCLDY    43  31  62 N8        30.30S
A. F. ACADEMY  FAIR      34  30  85 N6        30.30S WCI  29
SCHRIEVER AFB  FAIR      49  30  48 NW5       30.29S
CHEYENNE MTN   FAIR      49  30  47 CALM      30.27S
ELLICOTT         N/A    N/A N/A N/A NE3       30.27F
FALCON         FAIR      41  30  64 W9        30.32S
FORT CARSON    FAIR      44  31  61 NW10      30.27S
LIMON          FAIR      38  33  82 N5        30.25S
MONUMENT HILL  FAIR      36  30  80 SW9       30.32S
CANON CITY     FAIR      54  34  47 W14       30.26S
WALSENBURG     FAIR      48  32  53 CALM      30.30S
TRINIDAD       FAIR      41  30  65 W12       30.29R
$$

COZ042>045-048>051-090-091-231300-
...NORTHEAST COLORADO...

CITY           SKY/WX    TMP DP  RH WIND       PRES   REMARKS
GREELEY ARPT   FAIR      31  28  89 CALM      30.21F
AKRON          FAIR      43  34  70 W10       30.19F
BURLINGTON     FAIR      38  34  85 W12       30.20R
WRAY           NOT AVBL
YUMA           FAIR      37  34  87 W8        30.17F
STERLING       FAIR      37  36  93 S12       30.16S
HOLYOKE        FAIR      43  36  75 W10       30.15F
FORT MORGAN    FAIR      38  32  78 W8        30.20S
$$

COZ086-089-092>099-231300-
...SOUTHEAST COLORADO...

CITY           SKY/WX    TMP DP  RH WIND       PRES   REMARKS
PUEBLO         FAIR      36  30  79 CALM      30.24F
LA JUNTA       FAIR      41  31  67 W14       30.23S
LAMAR          FAIR      39  29  67 MISG      30.20S
SPRINGFIELD      N/A     39  29  67 W6        30.22R
$$




USA.gov is the U.S. government's official web portal to all federal, state and local government web resources and services.